Weather History for Albacete, Spain

Change the Weather History Date:

Monday, January 6, 2014

  Actual Average Record
Temperature  
Mean Temperature 47 °F -  
Max Temperature 57 °F - - ()
Min Temperature 33 °F - - ()
Degree Days  
Heating Degree Days 18    
Moisture  
Dew Point 41 °F    
Average Humidity 80    
Maximum Humidity 100    
Minimum Humidity 51    
Precipitation  
Precipitation 0.00 in 0.03 in - ()
Sea Level Pressure  
Sea Level Pressure 30.18 in    
Wind  
Wind Speed 5 mph ()    
Max Wind Speed 9 mph    
Max Gust Speed -    
Visibility 10.4 miles    
Events      
T = Trace of Precipitation, MM = Missing Value Source: Averaged Metar Reports

Daily Weather History Graph

Daily Weather History Graph

Search for Another Location

Airport:

Trip Planner

Search our weather history database for the weather conditions in past years. The results will help you decide how hot, cold, wet, or windy it might be!

Date:

Astronomy

Jan. 06, 2014 Rise Set
Actual Time 8:26 AM CET 6:00 PM CET
Civil Twilight 7:56 AM CET 6:29 PM CET
Nautical Twilight 7:23 AM CET 7:03 PM CET
Astronomical Twilight 6:51 AM CET 7:35 PM CET
Moon 11:37 AM CET (1/6) No Moon Set
Length of Visible Light 10h 33m
Length of Day
9h 33m
Waxing Crescent, 32% of the Moon is Illuminated
Jan 6
Waxing Crescent
Jan 8
First Quarter
Jan 16
Full
Jan 24
Last Quarter
Jan 30
New

Hourly Weather History & Observations

Time (CET) Temp. Windchill Dew Point Humidity Pressure Visibility Wind Dir Wind Speed Gust Speed Precip Events Conditions
12:00 AM 46.4 °F 41.9 °F 41.0 °F 81% 30.24 in 6.2 mi West 9.2 mph - N/A   Mostly Cloudy
1:00 AM 46 °F - 42 °F 79% 30.26 in 19 mi WNW 6.9 mph - -   Overcast
1:00 AM 46.4 °F 42.9 °F 41.0 °F 81% 30.24 in 6.2 mi WNW 6.9 mph - N/A   Mostly Cloudy
2:00 AM 46.4 °F 42.9 °F 41.0 °F 81% 30.21 in 6.2 mi WNW 6.9 mph - N/A   Mostly Cloudy
3:00 AM 44.6 °F 40.2 °F 41.0 °F 87% 30.21 in 6.2 mi WNW 8.1 mph - N/A   Mostly Cloudy
4:00 AM 45 °F - 42 °F 86% 30.24 in 19 mi WNW 8.1 mph - -   Overcast
4:00 AM 44.6 °F 40.2 °F 41.0 °F 87% 30.21 in 6.2 mi WNW 8.1 mph - N/A   Mostly Cloudy
5:00 AM 44.6 °F 40.7 °F 41.0 °F 87% 30.18 in 6.2 mi NW 6.9 mph - N/A   Overcast
6:00 AM 44.6 °F 40.7 °F 41.0 °F 87% 30.18 in 6.2 mi NW 6.9 mph - N/A   Mostly Cloudy
7:00 AM 45 °F - 42 °F 83% 30.19 in 19 mi NW 4.6 mph - -   Overcast
7:00 AM 44.6 °F 42.2 °F 41.0 °F 87% 30.15 in 6.2 mi NW 4.6 mph - N/A   Mostly Cloudy
8:00 AM 42.8 °F 41.1 °F 41.0 °F 93% 30.15 in 6.2 mi West 3.5 mph - N/A   Mostly Cloudy
9:00 AM 42.8 °F 39.3 °F 41.0 °F 93% 30.15 in 6.2 mi WNW 5.8 mph - N/A   Overcast
10:00 AM 44 °F - 40 °F 82% 30.21 in 12 mi West 4.6 mph - -   Mostly Cloudy
10:00 AM 42.8 °F 40.1 °F 41.0 °F 93% 30.18 in 6.2 mi West 4.6 mph - N/A   Mostly Cloudy
11:00 AM 44.6 °F 42.2 °F 41.0 °F 87% 30.18 in 6.2 mi West 4.6 mph - N/A   Scattered Clouds
12:00 PM 46.4 °F 43.5 °F 41.0 °F 81% 30.18 in 6.2 mi NW 5.8 mph - N/A   Partly Cloudy
1:00 PM 49 °F - 41 °F 64% 30.18 in 16 mi North 5.8 mph - -   Scattered Clouds
1:00 PM 48.2 °F - 42.8 °F 82% 30.15 in 6.2 mi North 5.8 mph - N/A   Partly Cloudy
2:00 PM 50.0 °F - 42.8 °F 76% 30.15 in - NNW 6.9 mph - N/A   Clear
3:00 PM 55.4 °F - 44.6 °F 67% 30.12 in - Variable 1.2 mph - N/A   Clear
4:00 PM 56 °F - 43 °F 51% 30.10 in 19 mi NNE 4.6 mph - -  
4:00 PM 55.4 °F - 44.6 °F 67% 30.12 in - NNE 4.6 mph - N/A   Clear
5:00 PM 55.4 °F - 44.6 °F 67% 30.12 in - North 5.8 mph - N/A   Clear
6:00 PM 53.6 °F - 42.8 °F 67% 30.15 in - Variable 2.3 mph - N/A   Clear
7:00 PM 49 °F - 42 °F 69% 30.17 in 19 mi North 3.5 mph - -  
7:00 PM 46.4 °F 45.2 °F 41.0 °F 81% 30.15 in - North 3.5 mph - N/A   Clear
8:00 PM 46.4 °F 43.5 °F 39.2 °F 76% 30.15 in - NNW 5.8 mph - N/A   Clear
9:00 PM 42.8 °F 40.1 °F 37.4 °F 81% 30.15 in - NW 4.6 mph - N/A   Clear
10:00 PM 40 °F - 36 °F 82% 30.24 in 19 mi Calm Calm - -  
10:00 PM 37.4 °F - 33.8 °F 87% 30.18 in - Calm Calm - N/A   Clear
11:00 PM 33.8 °F 29.6 °F 33.8 °F 100% 30.18 in - SE 4.6 mph - N/A   Clear